Temp
56 56 57 57 58 60 60 58 57 57 56 56 57 55 53 53 52 52 52 54 55 54 52 48 48 47 46 46 45 46 45 43
54 55 56 57 56 59 59 58 58 57 56 53 51 49 50 50 51 52 55 54 51 49 47 47 47 45 44 44 43 43 43 43
54 54 54 55 55 57 58 57 56 56 54 52 52 49 49 49 49 49 50 50 50 49 46 45 45 44 43 42 41 41 41 41
53 54 53 54 54 55 57 56 56 55 54 54 50 50 49 48 47 47 48 49 48 47 47 45 44 43 41 40 40 39 38 40
53 53 53 52 52 53 54 55 54 55 54 52 51 49 47 46 46 45 46 48 47 47 46 45 43 42 41 41 42 40 39 37
52 51 52 52 52 53 52 54 54 54 53 52 49 47 46 45 45 45 45 45 46 46 45 44 42 42 41 40 39 39 38 37
53 53 54 52 51 54 54 55 53 52 52 51 50 47 45 45 45 44 44 43 43 43 44 42 41 41 40 39 39 38 37 36
51 52 54 54 53 53 52 52 51 51 50 49 48 47 47 47 46 44 43 42 41 41 41 41 40 41 40 39 38 37 36 35
52 53 51 50 51 50 51 51 50 49 49 48 48 48 45 45 45 43 42 41 41 42 41 41 41 41 40 40 38 37 36 35
50 49 49 49 49 49 49 50 49 49 49 48 47 46 44 43 43 42 41 41 43 41 40 40 40 41 42 41 39 36 35 35
48 48 49 49 49 49 49 49 48 49 47 45 46 44 43 43 42 41 41 40 40 40 40 42 42 40 40 40 38 38 35 35
47 48 49 49 49 49 47 47 48 47 45 44 43 42 42 42 41 41 40 39 40 40 40 40 38 38 40 37 37 36 34 33
46 48 48 48 48 47 47 48 47 44 43 43 43 42 42 41 40 40 39 38 39 39 39 38 38 40 39 36 36 35 33 32
45 46 47 49 47 46 49 45 43 43 43 42 41 41 40 39 38 38 39 38 38 37 38 39 40 38 37 38 35 33 32 31
44 45 47 45 47 48 44 44 43 43 43 41 40 39 38 38 38 38 38 38 36 36 40 38 38 38 39 36 33 32 31 31
45 44 44 47 45 44 44 43 43 43 42 40 39 39 39 38 37 36 36 36 37 39 39 37 34 35 35 32 32 31 29 29
45 45 47 46 44 42 43 43 42 42 40 39 39 39 38 37 36 35 35 36 37 36 34 32 31 35 36 36 33 29 29 28
46 46 46 43 42 42 42 42 41 40 39 39 39 38 37 36 35 34 35 34 31 31 31 31 29 30 35 35 33 29 27 26
45 43 42 42 41 41 40 40 39 38 38 38 38 36 35 34 34 37 33 34 35 29 29 29 29 31 33 33 32 26 25 25
MSLP
1019.53 1019.35 1019.16 1019.35 1019.47 1019.91 1020.81 1021.69 1021.94 1022.64 1023.09 1023.03 1023.05 1023.52 1024.15 1024.10 1024.17 1024.25 1024.26 1024.24 1024.34 1024.50 1024.72 1024.79 1024.55 1024.50 1024.73 1024.76 1024.70 1024.40 1024.37 1024.43
1020.18 1020.03 1020.24 1020.07 1020.38 1020.62 1021.23 1021.81 1022.45 1023.25 1023.47 1023.56 1023.66 1024.28 1024.45 1024.54 1024.59 1024.50 1024.34 1024.43 1024.62 1024.64 1024.77 1024.80 1024.80 1024.94 1025.07 1024.97 1024.85 1024.77 1024.59 1024.38
1020.61 1020.61 1020.52 1020.68 1020.96 1021.16 1021.66 1022.29 1022.67 1022.81 1022.79 1022.96 1023.20 1023.87 1024.40 1024.67 1024.81 1024.86 1024.80 1024.66 1024.64 1024.74 1024.94 1025.08 1025.06 1025.03 1025.10 1025.18 1025.17 1025.14 1024.99 1024.80
1020.89 1020.86 1020.75 1021.25 1021.51 1021.41 1021.87 1022.27 1022.41 1022.26 1022.15 1022.62 1023.44 1023.99 1024.61 1024.98 1025.14 1025.15 1024.97 1024.88 1024.95 1024.93 1024.90 1024.91 1025.03 1025.23 1025.41 1025.39 1025.31 1025.29 1025.27 1024.98
1021.26 1021.43 1021.63 1021.45 1021.98 1021.95 1022.16 1022.46 1022.60 1022.73 1022.59 1022.91 1023.35 1023.96 1024.54 1024.92 1025.12 1025.21 1025.11 1025.03 1025.01 1024.91 1024.88 1024.97 1025.11 1025.26 1025.32 1025.19 1025.13 1025.28 1025.41 1025.52
1021.26 1021.81 1021.93 1021.95 1022.25 1022.66 1022.49 1022.76 1022.79 1022.84 1022.94 1023.25 1023.55 1024.29 1024.71 1024.98 1025.16 1025.25 1025.31 1025.19 1025.03 1024.96 1024.91 1024.90 1024.94 1024.98 1025.01 1024.96 1025.03 1025.21 1025.32 1025.43
1021.65 1021.77 1022.23 1022.41 1022.33 1022.52 1022.51 1022.96 1023.26 1023.19 1023.36 1023.55 1023.82 1024.51 1024.99 1025.29 1025.39 1025.45 1025.31 1025.27 1025.14 1024.92 1024.77 1024.86 1024.87 1024.88 1024.98 1024.93 1024.86 1025.06 1025.23 1025.28
1021.71 1021.66 1021.95 1022.29 1023.35 1023.03 1023.02 1023.57 1023.61 1023.63 1023.81 1024.01 1024.31 1024.64 1024.87 1025.01 1025.01 1025.00 1025.05 1025.02 1024.82 1024.56 1024.65 1024.61 1024.66 1024.63 1024.67 1024.71 1024.86 1024.79 1024.97 1025.08
1022.14 1022.29 1022.64 1022.52 1023.10 1023.27 1023.57 1023.68 1023.71 1023.95 1024.11 1024.32 1024.43 1024.56 1024.70 1024.73 1024.66 1024.76 1024.76 1024.72 1024.45 1024.18 1024.17 1024.31 1024.31 1024.35 1024.62 1024.81 1024.83 1024.63 1024.57 1024.45
1022.17 1022.44 1022.90 1023.06 1023.27 1023.51 1023.58 1023.44 1023.93 1024.19 1024.27 1024.32 1024.49 1024.66 1024.91 1025.03 1024.99 1024.84 1024.68 1024.39 1024.08 1024.16 1024.28 1024.41 1024.58 1024.81 1024.65 1024.63 1024.68 1024.48 1024.45 1024.45
1022.61 1022.98 1023.16 1023.26 1023.39 1023.38 1023.40 1023.66 1024.06 1024.15 1024.30 1024.60 1024.94 1025.09 1025.04 1025.02 1024.94 1024.83 1024.74 1024.61 1024.39 1024.24 1024.16 1023.87 1023.66 1023.86 1023.85 1023.99 1024.16 1024.15 1024.27 1024.19
1023.08 1023.16 1023.22 1023.14 1023.12 1023.48 1023.70 1023.93 1024.02 1024.21 1024.43 1024.63 1024.81 1024.93 1024.93 1024.88 1024.81 1024.67 1024.46 1024.21 1023.95 1023.78 1023.49 1023.58 1023.49 1023.64 1023.69 1024.03 1023.97 1023.84 1024.01 1024.22
1023.04 1023.06 1023.19 1023.47 1023.61 1023.49 1023.73 1023.94 1024.18 1024.51 1024.61 1024.73 1024.93 1024.97 1024.89 1024.97 1024.99 1024.79 1024.44 1024.17 1023.61 1023.33 1023.24 1023.48 1023.44 1023.50 1023.60 1023.78 1024.04 1024.08 1024.12 1024.21
1023.23 1023.30 1023.44 1023.54 1023.60 1023.75 1023.96 1024.34 1024.67 1024.69 1024.77 1024.90 1024.96 1025.11 1025.22 1025.16 1024.93 1024.59 1024.18 1024.03 1023.70 1023.36 1023.46 1023.62 1023.58 1023.44 1023.48 1023.64 1023.91 1024.12 1024.08 1024.13
1023.37 1023.47 1023.47 1023.68 1023.87 1024.06 1024.33 1024.61 1024.69 1024.75 1024.85 1025.03 1025.20 1025.23 1025.18 1025.01 1024.74 1024.50 1024.25 1023.88 1023.56 1023.40 1023.29 1023.35 1023.48 1023.34 1023.35 1023.64 1023.93 1024.00 1024.00 1023.92
1023.10 1023.39 1023.67 1023.87 1024.08 1024.33 1024.50 1024.57 1024.66 1024.72 1024.81 1025.02 1025.20 1025.22 1025.06 1024.83 1024.71 1024.56 1024.27 1023.89 1023.67 1023.43 1023.33 1023.37 1023.56 1023.45 1023.54 1023.78 1023.89 1023.91 1023.93 1023.77
1023.01 1023.31 1023.67 1023.88 1024.19 1024.40 1024.50 1024.56 1024.62 1024.65 1024.86 1025.07 1025.09 1024.96 1024.83 1024.86 1024.73 1024.63 1024.36 1024.12 1023.94 1023.79 1023.74 1023.70 1023.81 1023.79 1023.75 1023.75 1023.87 1024.00 1023.98 1023.85
1022.78 1023.13 1023.48 1023.82 1024.20 1024.35 1024.47 1024.55 1024.59 1024.69 1024.85 1024.93 1024.90 1024.89 1024.92 1024.84 1024.71 1024.58 1024.39 1024.33 1024.28 1024.18 1024.05 1024.05 1024.18 1024.15 1023.96 1023.86 1023.90 1024.06 1024.09 1023.96
1022.78 1023.09 1023.45 1023.88 1024.19 1024.42 1024.56 1024.58 1024.65 1024.75 1024.85 1024.84 1024.79 1024.86 1024.93 1024.79 1024.63 1024.33 1024.27 1024.11 1024.17 1024.26 1024.27 1024.30 1024.37 1024.39 1024.22 1024.03 1023.99 1024.15 1024.14 1023.86
Wind_Speed
6 6 7 9 11 13 12 10 12 8 5 3 6 7 5 4 4 4 5 5 5 4 4 4 4 5 4 4 3 3 1 2
6 8 6 12 9 12 10 14 9 6 3 3 4 4 3 4 4 4 5 5 5 6 4 5 4 4 3 4 3 4 3 6
7 7 7 10 10 10 11 11 9 6 4 4 4 4 3 4 3 5 5 6 5 5 5 3 3 3 5 5 5 3 3 4
5 6 8 5 8 9 10 8 8 6 7 6 4 5 3 2 2 2 3 4 4 4 4 3 3 3 2 2 2 4 2 2
4 4 4 7 5 6 7 6 5 4 3 4 4 3 3 1 2 1 1 2 2 3 3 2 2 2 1 0 1 1 1 2
7 4 4 4 5 3 5 4 4 3 3 4 4 5 3 2 1 1 1 2 3 3 3 3 4 3 3 3 2 2 1 1
4 6 5 5 4 4 4 3 1 5 5 5 7 7 5 2 3 3 4 3 4 5 4 4 4 4 4 4 3 3 3 3
7 9 9 8 3 3 4 4 3 4 5 5 5 5 6 6 5 4 4 3 3 6 4 4 4 4 4 3 4 4 4 3
5 6 5 7 6 4 4 4 4 4 5 4 5 6 4 5 5 3 4 4 4 3 6 4 5 4 4 4 3 4 3 3
6 6 5 6 6 4 5 4 3 4 5 4 4 4 5 5 7 5 4 6 4 5 4 4 5 6 5 4 4 5 3 4
6 6 5 4 4 3 4 5 6 5 4 2 2 3 4 5 5 7 6 6 4 5 4 5 6 4 3 4 4 5 4 4
6 5 4 4 5 3 4 4 2 2 3 4 5 5 4 4 4 6 6 5 6 7 7 5 3 4 4 5 6 5 5 2
5 4 5 3 1 4 5 3 4 4 2 3 3 4 5 6 6 6 6 7 7 7 5 3 3 4 4 4 6 4 2 3
4 3 3 2 3 4 3 3 3 3 3 3 4 4 4 4 5 6 7 7 7 4 2 4 5 4 2 3 1 2 3 4
4 3 2 3 2 2 3 3 1 1 0 2 1 2 3 4 6 7 7 6 6 4 1 3 2 3 2 2 1 3 5 5
4 2 2 2 1 2 3 1 2 2 2 0 1 3 4 6 6 6 7 6 4 3 2 2 5 2 2 2 4 5 5 7
6 4 2 3 4 4 2 3 4 2 2 1 2 3 5 6 6 6 5 5 4 3 4 5 4 3 6 8 6 4 6 7
6 4 4 5 4 3 2 4 3 2 2 1 3 5 5 6 6 4 4 4 4 4 3 4 4 4 8 9 9 4 5 7
4 4 4 3 2 1 4 3 3 1 1 3 4 5 6 6 5 5 4 3 4 2 2 3 3 3 8 9 8 4 5 7
Wind_Direction
7 30 58 78 97 108 104 94 89 95 80 86 80 73 59 58 66 73 86 80 80 93 81 58 39 43 32 16 4 338 43 303
43 46 76 90 82 91 98 110 132 144 148 148 90 99 94 70 73 82 80 88 75 74 67 55 40 49 19 9 331 356 346 348
71 79 71 88 105 120 125 152 174 181 162 156 140 155 94 97 77 62 65 70 77 84 91 80 50 31 21 25 37 353 342 30
115 104 115 111 124 132 144 157 161 144 121 111 74 73 77 89 50 56 45 95 109 106 93 67 42 45 35 33 35 51 359 326
75 83 76 99 65 72 83 89 98 100 115 107 129 150 149 136 123 175 162 122 146 155 160 155 130 137 108 193 133 128 67 315
128 85 87 78 63 45 79 65 73 85 95 112 109 87 89 122 137 175 242 241 218 212 210 196 190 192 205 200 201 221 224 248
107 105 87 56 91 112 114 145 63 56 70 84 103 120 132 141 218 230 230 231 236 239 231 216 219 210 217 220 214 241 280 276
163 152 152 133 199 140 143 156 107 86 90 88 110 148 186 210 227 231 240 254 247 247 230 226 230 240 248 247 245 239 250 243
137 131 155 138 179 163 150 144 125 118 109 143 186 202 215 233 247 256 259 253 260 260 236 246 244 250 262 263 259 264 266 273
152 150 176 153 141 147 176 144 116 137 178 207 239 256 284 302 302 290 280 279 278 311 306 309 328 339 303 287 270 273 276 277
150 164 163 147 143 130 111 142 160 195 221 250 303 308 317 317 311 298 300 313 320 294 265 220 225 231 274 270 263 266 256 262
150 138 123 95 66 56 114 108 89 323 341 2 360 343 331 335 334 312 293 269 256 249 235 241 188 280 285 271 262 258 257 262
128 103 89 81 145 77 87 48 19 360 23 51 34 16 15 6 338 320 309 280 274 256 243 220 281 277 270 269 288 311 288 305
123 116 116 107 78 90 78 59 88 75 76 70 42 16 359 343 331 325 315 312 303 303 310 324 326 313 319 349 342 287 307 296
164 167 124 60 81 121 138 125 96 84 94 134 73 359 340 335 331 327 321 316 314 314 38 71 310 300 321 108 284 311 306 295
172 170 156 139 194 159 137 128 243 231 247 156 7 330 334 337 333 329 324 335 346 49 60 16 352 38 85 50 339 329 312 305
188 165 174 192 162 160 191 257 274 285 307 216 300 329 341 328 321 334 340 328 338 342 13 0 42 33 36 19 19 351 344 337
190 194 182 159 167 181 278 285 308 309 181 281 332 328 315 315 314 320 336 338 335 340 0 68 55 26 33 2 359 359 340 320
185 164 136 157 178 282 289 305 302 190 286 311 317 315 306 300 309 305 274 258 296 310 109 82 71 36 12 359 349 341 319 302